Time,TemperatureF,DewpointF,PressureIn,WindDirection,WindDirectionDegrees,WindSpeedMPH,WindSpeedGustMPH,Humidity,HourlyPrecipIn,Conditions,Clouds,dailyrainin,SoftwareType,DateUTC
2013-03-08 00:12:00,30.0,-99.9,-100.00,North,7,5.0,8.0,-999,-99.99,,,-99.99,,2013-03-08 05:12:00,
2013-03-08 00:22:00,-999.0,-99.9,-100.00,North,4,6.0,6.0,-999,-99.99,,,-99.99,,2013-03-08 05:22:00,
2013-03-08 00:43:00,30.0,-99.9,-100.00,North,352,4.0,5.0,-999,-99.99,,,-99.99,,2013-03-08 05:43:00,
2013-03-08 00:52:00,30.0,-99.9,30.38,North,352,4.0,5.0,-999,-99.99,,,-99.99,,2013-03-08 05:52:00,
2013-03-08 01:02:00,29.0,-99.9,30.38,NNW,341,3.0,4.0,-999,-99.99,,,-99.99,,2013-03-08 06:02:00,
2013-03-08 01:11:00,29.0,-99.9,30.38,NW,323,4.0,5.0,-999,-99.99,,,-99.99,,2013-03-08 06:11:00,
2013-03-08 01:22:00,-999.0,-99.9,-100.00,NNW,329,6.0,7.0,-999,-99.99,,,-99.99,,2013-03-08 06:22:00,
2013-03-08 01:32:00,29.0,-99.9,30.38,NNW,340,6.0,7.0,-999,-99.99,,,-99.99,,2013-03-08 06:32:00,
2013-03-08 02:01:00,29.0,-99.9,30.39,NNW,336,6.0,6.0,-999,-99.99,,,-99.99,,2013-03-08 07:01:00,
2013-03-08 02:32:00,29.0,-99.9,-100.00,NNW,328,5.0,6.0,-999,-99.99,,,-99.99,,2013-03-08 07:32:00,
2013-03-08 02:42:00,29.0,-99.9,30.39,NW,321,6.0,7.0,-999,-99.99,,,-99.99,,2013-03-08 07:42:00,
2013-03-08 02:52:00,-999.0,-99.9,-100.00,NW,318,6.0,7.0,-999,-99.99,,,-99.99,,2013-03-08 07:52:00,
2013-03-08 03:32:00,28.0,-99.9,-100.00,WNW,299,5.0,5.0,-999,-99.99,,,-99.99,,2013-03-08 08:32:00,
2013-03-08 03:42:00,28.0,-99.9,30.38,West,278,3.0,4.0,-999,-99.99,,,-99.99,,2013-03-08 08:42:00,
2013-03-08 04:03:00,28.0,-99.9,30.39,West,276,4.0,5.0,-999,-99.99,,,-99.99,,2013-03-08 09:03:00,
2013-03-08 04:11:00,28.0,-99.9,-100.00,West,268,4.0,5.0,-999,-99.99,,,-99.99,,2013-03-08 09:11:00,
2013-03-08 04:42:00,-999.0,-99.9,-100.00,West,279,4.0,5.0,-999,-99.99,,,-99.99,,2013-03-08 09:42:00,
2013-03-08 05:01:00,28.0,-99.9,-100.00,West,267,4.0,4.0,-999,-99.99,,,-99.99,,2013-03-08 10:01:00,
2013-03-08 05:11:00,28.0,-99.9,-100.00,West,267,4.0,4.0,-999,-99.99,,,-99.99,,2013-03-08 10:11:00,
2013-03-08 05:32:00,28.0,-99.9,30.41,WSW,255,4.0,4.0,-999,-99.99,,,-99.99,,2013-03-08 10:32:00,
2013-03-08 05:42:00,28.0,-99.9,30.41,West,263,6.0,7.0,-999,-99.99,,,-99.99,,2013-03-08 10:42:00,
2013-03-08 05:52:00,-999.0,-99.9,-100.00,West,259,6.0,7.0,-999,-99.99,,,-99.99,,2013-03-08 10:52:00,
2013-03-08 06:01:00,28.0,-99.9,-100.00,West,274,6.0,8.0,-999,-99.99,,,-99.99,,2013-03-08 11:01:00,
2013-03-08 06:11:00,28.0,-99.9,30.42,WNW,289,5.0,6.0,-999,-99.99,,,-99.99,,2013-03-08 11:11:00,
2013-03-08 06:22:00,-999.0,-99.9,-100.00,WNW,294,4.0,6.0,-999,-99.99,,,-99.99,,2013-03-08 11:22:00,
2013-03-08 06:32:00,29.0,-99.9,30.43,NW,314,6.0,7.0,-999,-99.99,,,-99.99,,2013-03-08 11:32:00,
2013-03-08 06:42:00,29.0,-99.9,30.43,NW,310,6.0,8.0,-999,-99.99,,,-99.99,,2013-03-08 11:42:00,
2013-03-08 06:52:00,29.0,-99.9,30.43,NW,321,6.0,7.0,-999,-99.99,,,-99.99,,2013-03-08 11:52:00,
2013-03-08 07:02:00,29.0,-99.9,30.44,NNW,329,5.0,7.0,-999,-99.99,,,-99.99,,2013-03-08 12:02:00,
2013-03-08 07:12:00,30.0,-99.9,-100.00,NNW,341,5.0,7.0,-999,-99.99,,,-99.99,,2013-03-08 12:12:00,
2013-03-08 07:23:00,-999.0,-99.9,-100.00,North,349,5.0,7.0,-999,-99.99,,,-99.99,,2013-03-08 12:23:00,
2013-03-08 07:43:00,30.0,-99.9,-100.00,North,351,8.0,9.0,-999,-99.99,,,-99.99,,2013-03-08 12:43:00,
2013-03-08 07:53:00,-999.0,-99.9,-100.00,NNW,345,8.0,9.0,-999,-99.99,,,-99.99,,2013-03-08 12:53:00,
2013-03-08 08:02:00,30.0,-99.9,-100.00,North,1,10.0,11.0,-999,-99.99,,,-99.99,,2013-03-08 13:02:00,
2013-03-08 08:12:00,-999.0,-99.9,-100.00,North,6,9.0,12.0,-999,-99.99,,,-99.99,,2013-03-08 13:12:00,
2013-03-08 08:33:00,29.0,-99.9,30.47,NNE,12,9.0,12.0,-999,-99.99,,,-99.99,,2013-03-08 13:33:00,
2013-03-08 08:42:00,30.0,-99.9,30.47,North,3,10.0,12.0,-999,-99.99,,,-99.99,,2013-03-08 13:42:00,
2013-03-08 08:52:00,-999.0,-99.9,-100.00,North,2,9.0,12.0,-999,-99.99,,,-99.99,,2013-03-08 13:52:00,
2013-03-08 09:03:00,30.0,-99.9,-100.00,NNE,16,8.0,12.0,-999,-99.99,,,-99.99,,2013-03-08 14:03:00,
2013-03-08 09:12:00,30.0,-99.9,30.47,NNE,20,9.0,10.0,-999,-99.99,,,-99.99,,2013-03-08 14:12:00,
2013-03-08 09:22:00,-999.0,-99.9,-100.00,NNE,15,7.0,9.0,-999,-99.99,,,-99.99,,2013-03-08 14:22:00,
2013-03-08 09:53:00,30.0,-99.9,30.47,NE,45,6.0,9.0,-999,-99.99,,,-99.99,,2013-03-08 14:53:00,
2013-03-08 10:03:00,30.0,-99.9,-100.00,NNE,30,7.0,9.0,-999,-99.99,,,-99.99,,2013-03-08 15:03:00,
2013-03-08 10:12:00,31.0,-99.9,-100.00,NNW,341,4.0,5.0,-999,-99.99,,,-99.99,,2013-03-08 15:12:00,
2013-03-08 10:43:00,31.0,-99.9,30.48,WNW,298,5.0,5.0,-999,-99.99,,,-99.99,,2013-03-08 15:43:00,
2013-03-08 10:53:00,31.0,-99.9,30.48,North,-999,-999.0,-999.0,-999,-99.99,,,-99.99,,2013-03-08 15:53:00,
2013-03-08 11:02:00,30.0,-99.9,-100.00,WNW,287,7.0,8.0,-999,-99.99,,,-99.99,,2013-03-08 16:02:00,
2013-03-08 11:12:00,30.0,-99.9,-100.00,West,279,6.0,8.0,-999,-99.99,,,-99.99,,2013-03-08 16:12:00,
2013-03-08 11:22:00,30.0,-99.9,30.48,North,-999,-999.0,-999.0,-999,-99.99,,,-99.99,,2013-03-08 16:22:00,
2013-03-08 11:32:00,30.0,-99.9,-100.00,West,274,8.0,9.0,-999,-99.99,,,-99.99,,2013-03-08 16:32:00,
2013-03-08 11:42:00,30.0,-99.9,-100.00,West,267,8.0,10.0,-999,-99.99,,,-99.99,,2013-03-08 16:42:00,
2013-03-08 12:03:00,30.0,-99.9,30.48,West,274,8.0,9.0,-999,-99.99,,,-99.99,,2013-03-08 17:03:00,
2013-03-08 12:12:00,30.0,-99.9,-100.00,West,270,8.0,10.0,-999,-99.99,,,-99.99,,2013-03-08 17:12:00,
2013-03-08 12:22:00,-999.0,-99.9,-100.00,West,268,9.0,10.0,-999,-99.99,,,-99.99,,2013-03-08 17:22:00,
2013-03-08 12:32:00,30.0,-99.9,30.48,West,276,7.0,9.0,-999,-99.99,,,-99.99,,2013-03-08 17:32:00,
2013-03-08 12:42:00,30.0,-99.9,30.47,West,278,7.0,9.0,-999,-99.99,,,-99.99,,2013-03-08 17:42:00,
2013-03-08 12:53:00,-999.0,-99.9,-100.00,West,276,9.0,9.0,-999,-99.99,,,-99.99,,2013-03-08 17:53:00,
2013-03-08 13:32:00,31.0,-99.9,30.47,WNW,291,8.0,10.0,-999,-99.99,,,-99.99,,2013-03-08 18:32:00,
2013-03-08 13:42:00,31.0,-99.9,30.46,WNW,298,8.0,10.0,-999,-99.99,,,-99.99,,2013-03-08 18:42:00,
2013-03-08 13:52:00,-999.0,-99.9,-100.00,WNW,303,6.0,8.0,-999,-99.99,,,-99.99,,2013-03-08 18:52:00,
2013-03-08 14:02:00,31.0,-99.9,30.45,NW,315,7.0,8.0,-999,-99.99,,,-99.99,,2013-03-08 19:02:00,
2013-03-08 14:12:00,-999.0,-99.9,-100.00,NW,312,6.0,8.0,-999,-99.99,,,-99.99,,2013-03-08 19:12:00,
2013-03-08 14:22:00,-999.0,-99.9,-100.00,NW,312,6.0,8.0,-999,-99.99,,,-99.99,,2013-03-08 19:22:00,
2013-03-08 14:32:00,31.0,-99.9,30.44,NW,316,9.0,11.0,-999,-99.99,,,-99.99,,2013-03-08 19:32:00,
2013-03-08 14:42:00,-999.0,-99.9,-100.00,NW,309,9.0,10.0,-999,-99.99,,,-99.99,,2013-03-08 19:42:00,
2013-03-08 15:02:00,31.0,-99.9,-100.00,WNW,295,7.0,10.0,-999,-99.99,,,-99.99,,2013-03-08 20:02:00,
2013-03-08 15:11:00,31.0,-99.9,30.44,WNW,295,8.0,9.0,-999,-99.99,,,-99.99,,2013-03-08 20:11:00,
2013-03-08 15:32:00,31.0,-99.9,-100.00,WNW,288,4.0,7.0,-999,-99.99,,,-99.99,,2013-03-08 20:32:00,
2013-03-08 15:42:00,31.0,-99.9,30.45,WNW,288,6.0,7.0,-999,-99.99,,,-99.99,,2013-03-08 20:42:00,
2013-03-08 15:53:00,-999.0,-99.9,-100.00,WNW,291,7.0,7.0,-999,-99.99,,,-99.99,,2013-03-08 20:53:00,
2013-03-08 16:02:00,32.0,-99.9,-100.00,NW,310,6.0,7.0,-999,-99.99,,,-99.99,,2013-03-08 21:02:00,
2013-03-08 16:12:00,-999.0,-99.9,-100.00,WNW,301,6.0,6.0,-999,-99.99,,,-99.99,,2013-03-08 21:12:00,
2013-03-08 16:33:00,32.0,-99.9,-100.00,WNW,291,5.0,6.0,-999,-99.99,,,-99.99,,2013-03-08 21:33:00,
2013-03-08 16:42:00,31.0,-99.9,30.45,WNW,291,5.0,6.0,-999,-99.99,,,-99.99,,2013-03-08 21:42:00,
2013-03-08 16:52:00,31.0,-99.9,30.45,WNW,286,4.0,6.0,-999,-99.99,,,-99.99,,2013-03-08 21:52:00,
2013-03-08 17:02:00,31.0,-99.9,30.45,West,267,4.0,5.0,-999,-99.99,,,-99.99,,2013-03-08 22:02:00,
2013-03-08 17:12:00,31.0,-99.9,-100.00,WSW,253,4.0,5.0,-999,-99.99,,,-99.99,,2013-03-08 22:12:00,
2013-03-08 17:22:00,-999.0,-99.9,-100.00,WSW,246,3.0,4.0,-999,-99.99,,,-99.99,,2013-03-08 22:22:00,
2013-03-08 17:32:00,32.0,-99.9,30.44,WSW,247,2.0,4.0,-999,-99.99,,,-99.99,,2013-03-08 22:32:00,
2013-03-08 17:53:00,32.0,-99.9,30.44,WSW,250,3.0,4.0,-999,-99.99,,,-99.99,,2013-03-08 22:53:00,
2013-03-08 18:02:00,32.0,-99.9,30.45,WSW,247,3.0,4.0,-999,-99.99,,,-99.99,,2013-03-08 23:02:00,
2013-03-08 18:12:00,32.0,-99.9,-100.00,WSW,241,2.0,4.0,-999,-99.99,,,-99.99,,2013-03-08 23:12:00,
2013-03-08 18:32:00,32.0,-99.9,-100.00,WSW,241,3.0,4.0,-999,-99.99,,,-99.99,,2013-03-08 23:32:00,
2013-03-08 18:42:00,32.0,-99.9,-100.00,SW,220,3.0,4.0,-999,-99.99,,,-99.99,,2013-03-08 23:42:00,
2013-03-08 19:02:00,31.0,-99.9,30.44,SW,228,3.0,4.0,-999,-99.99,,,-99.99,,2013-03-09 00:02:00,
2013-03-08 19:22:00,31.0,-99.9,30.44,SW,232,3.0,4.0,-999,-99.99,,,-99.99,,2013-03-09 00:22:00,
2013-03-08 19:43:00,30.0,-99.9,-100.00,WSW,247,1.0,2.0,-999,-99.99,,,-99.99,,2013-03-09 00:43:00,
2013-03-08 19:52:00,29.0,-99.9,30.44,WSW,248,2.0,2.0,-999,-99.99,,,-99.99,,2013-03-09 00:52:00,
2013-03-08 20:02:00,29.0,-99.9,30.45,West,260,1.0,1.0,-999,-99.99,,,-99.99,,2013-03-09 01:02:00,
2013-03-08 20:12:00,29.0,-99.9,30.45,WNW,283,1.0,2.0,-999,-99.99,,,-99.99,,2013-03-09 01:12:00,
2013-03-08 20:32:00,29.0,-99.9,30.44,NE,47,-999.0,1.0,-999,-99.99,,,-99.99,,2013-03-09 01:32:00,
2013-03-08 20:52:00,29.0,-99.9,30.44,ESE,119,1.0,2.0,-999,-99.99,,,-99.99,,2013-03-09 01:52:00,
2013-03-08 21:11:00,30.0,-99.9,-100.00,SE,145,0.0,2.0,-999,-99.99,,,-99.99,,2013-03-09 02:11:00,
2013-03-08 21:31:00,29.0,-99.9,30.43,SE,145,1.0,2.0,-999,-99.99,,,-99.99,,2013-03-09 02:31:00,
2013-03-08 21:41:00,29.0,-99.9,-100.00,WSW,250,2.0,2.0,-999,-99.99,,,-99.99,,2013-03-09 02:41:00,
2013-03-08 22:22:00,29.0,-99.9,30.44,SW,233,1.0,2.0,-999,-99.99,,,-99.99,,2013-03-09 03:22:00,
2013-03-08 22:42:00,28.0,-99.9,30.45,WSW,253,2.0,3.0,-999,-99.99,,,-99.99,,2013-03-09 03:42:00,
2013-03-08 23:01:00,28.0,-99.9,30.45,SW,235,2.0,2.0,-999,-99.99,,,-99.99,,2013-03-09 04:01:00,
2013-03-08 23:11:00,28.0,-99.9,30.45,SW,223,1.0,2.0,-999,-99.99,,,-99.99,,2013-03-09 04:11:00,
2013-03-08 23:22:00,-999.0,-99.9,-100.00,SW,232,2.0,2.0,-999,-99.99,,,-99.99,,2013-03-09 04:22:00,
2013-03-08 23:32:00,28.0,-99.9,30.45,SW,220,2.0,2.0,-999,-99.99,,,-99.99,,2013-03-09 04:32:00,